TimeEST,TemperatureF,Dew PointF,Humidity,Sea Level PressureIn,VisibilityMPH,Wind Direction,Wind SpeedMPH,Gust SpeedMPH,PrecipitationIn,Events,Conditions,WindDirDegrees,DateUTC
12:15 AM,51.8,50.0,94,30.41,2.5,Calm,Calm,-,N/A,,Clear,0,2013-01-10 05:15:00
12:35 AM,51.8,50.0,94,30.41,1.0,Calm,Calm,-,N/A,,Clear,0,2013-01-10 05:35:00
1:15 AM,51.8,50.0,94,30.41,0.8,Calm,Calm,-,N/A,,Mist,0,2013-01-10 06:15:00
1:35 AM,48.2,48.2,100,30.41,0.8,Calm,Calm,-,N/A,,Mist,0,2013-01-10 06:35:00
3:35 AM,50.0,50.0,100,30.42,0.5,Calm,Calm,-,N/A,Fog,Fog,0,2013-01-10 08:35:00
3:55 AM,51.8,51.8,100,30.42,8.0,Calm,Calm,-,N/A,,Clear,0,2013-01-10 08:55:00
4:15 AM,51.8,51.8,100,30.42,7.0,Calm,Calm,-,N/A,,Clear,0,2013-01-10 09:15:00
4:35 AM,51.8,51.8,100,30.41,7.0,Calm,Calm,-,N/A,,Clear,0,2013-01-10 09:35:00
4:55 AM,51.8,51.8,100,30.41,6.0,Calm,Calm,-,N/A,,Clear,0,2013-01-10 09:55:00
5:15 AM,51.8,51.8,100,30.41,6.0,Calm,Calm,-,N/A,,Clear,0,2013-01-10 10:15:00
5:35 AM,53.6,51.8,94,30.40,6.0,Calm,Calm,-,N/A,,Clear,0,2013-01-10 10:35:00
6:15 AM,53.6,51.8,94,30.40,7.0,Calm,Calm,-,N/A,,Clear,0,2013-01-10 11:15:00
6:35 AM,51.8,51.8,100,30.42,7.0,Calm,Calm,-,N/A,,Clear,0,2013-01-10 11:35:00
6:55 AM,51.8,51.8,100,30.42,8.0,Calm,Calm,-,N/A,,Clear,0,2013-01-10 11:55:00
7:15 AM,51.8,51.8,100,30.42,5.0,Calm,Calm,-,N/A,,Clear,0,2013-01-10 12:15:00
7:35 AM,51.8,51.8,100,30.42,5.0,Calm,Calm,-,N/A,,Clear,0,2013-01-10 12:35:00
7:55 AM,51.8,51.8,100,30.43,3.0,Calm,Calm,-,N/A,,Clear,0,2013-01-10 12:55:00
8:15 AM,51.8,51.8,100,30.44,5.0,Calm,Calm,-,N/A,,Clear,0,2013-01-10 13:15:00
8:35 AM,53.6,53.6,100,30.44,5.0,Calm,Calm,-,N/A,,Clear,0,2013-01-10 13:35:00
8:55 AM,55.4,53.6,94,30.45,8.0,Calm,Calm,-,N/A,,Clear,0,2013-01-10 13:55:00
9:15 AM,57.2,53.6,88,30.46,9.0,ENE,4.6,-,N/A,,Clear,60,2013-01-10 14:15:00
9:35 AM,59.0,53.6,82,30.46,10.0,ENE,8.1,-,N/A,,Clear,70,2013-01-10 14:35:00
9:55 AM,60.8,55.4,82,30.46,10.0,ENE,9.2,-,N/A,,Clear,60,2013-01-10 14:55:00
10:15 AM,62.6,55.4,77,30.46,10.0,ENE,9.2,-,N/A,,Clear,70,2013-01-10 15:15:00
10:55 AM,66.2,55.4,68,30.44,10.0,ENE,8.1,-,N/A,,Clear,60,2013-01-10 15:55:00
11:15 AM,69.8,57.2,64,30.43,10.0,ENE,8.1,-,N/A,,Clear,60,2013-01-10 16:15:00
11:35 AM,69.8,55.4,60,30.43,10.0,ENE,9.2,-,N/A,,Clear,60,2013-01-10 16:35:00
11:55 AM,71.6,55.4,57,30.42,10.0,East,11.5,-,N/A,,Clear,90,2013-01-10 16:55:00
12:15 PM,71.6,53.6,53,30.41,10.0,ENE,10.4,18.4,N/A,,Clear,60,2013-01-10 17:15:00
12:35 PM,73.4,53.6,50,30.40,10.0,East,12.7,16.1,N/A,,Partly Cloudy,80,2013-01-10 17:35:00
1:15 PM,73.4,53.6,50,30.39,10.0,ENE,9.2,-,N/A,,Partly Cloudy,70,2013-01-10 18:15:00
2:15 PM,73.4,55.4,53,30.38,10.0,East,9.2,-,N/A,,Overcast,100,2013-01-10 19:15:00
2:35 PM,73.4,55.4,53,30.37,10.0,East,13.8,-,N/A,,Mostly Cloudy,100,2013-01-10 19:35:00
2:55 PM,73.4,55.4,53,30.37,10.0,East,11.5,-,N/A,,Mostly Cloudy,100,2013-01-10 19:55:00
3:15 PM,73.4,53.6,50,30.36,10.0,East,10.4,-,N/A,,Partly Cloudy,100,2013-01-10 20:15:00
3:35 PM,73.4,53.6,50,30.35,10.0,East,9.2,-,N/A,,Scattered Clouds,90,2013-01-10 20:35:00
3:55 PM,71.6,53.6,53,30.36,10.0,East,10.4,-,N/A,,Overcast,90,2013-01-10 20:55:00
4:15 PM,71.6,53.6,53,30.36,10.0,East,6.9,-,N/A,,Mostly Cloudy,100,2013-01-10 21:15:00
4:35 PM,71.6,53.6,53,30.36,10.0,East,11.5,-,N/A,,Mostly Cloudy,100,2013-01-10 21:35:00
4:55 PM,69.8,55.4,60,30.37,10.0,ESE,8.1,-,N/A,,Overcast,110,2013-01-10 21:55:00
5:15 PM,69.8,55.4,60,30.38,10.0,East,3.5,-,N/A,,Mostly Cloudy,100,2013-01-10 22:15:00
5:35 PM,69.8,55.4,60,30.37,10.0,Calm,Calm,-,N/A,,Mostly Cloudy,0,2013-01-10 22:35:00
6:15 PM,66.2,57.2,73,30.38,9.0,East,3.5,-,N/A,,Overcast,100,2013-01-10 23:15:00
6:35 PM,66.2,57.2,73,30.38,10.0,East,5.8,-,N/A,,Overcast,100,2013-01-10 23:35:00
6:55 PM,66.2,57.2,73,30.39,10.0,ESE,4.6,-,N/A,,Overcast,120,2013-01-10 23:55:00
7:15 PM,62.6,59.0,88,30.40,5.0,ESE,5.8,-,N/A,,Overcast,110,2013-01-11 00:15:00
7:35 PM,62.6,59.0,88,30.39,8.0,East,6.9,-,N/A,,Overcast,100,2013-01-11 00:35:00
8:15 PM,60.8,59.0,94,30.39,10.0,East,5.8,-,N/A,,Overcast,100,2013-01-11 01:15:00
8:35 PM,60.8,59.0,94,30.39,10.0,East,6.9,-,N/A,,Overcast,80,2013-01-11 01:35:00
8:55 PM,60.8,59.0,94,30.38,10.0,ENE,5.8,-,N/A,,Overcast,70,2013-01-11 01:55:00
9:15 PM,60.8,59.0,94,30.39,10.0,ENE,4.6,-,N/A,,Overcast,70,2013-01-11 02:15:00
9:35 PM,60.8,57.2,88,30.38,10.0,East,4.6,-,N/A,,Overcast,90,2013-01-11 02:35:00
9:55 PM,60.8,57.2,88,30.38,10.0,East,4.6,-,N/A,,Overcast,100,2013-01-11 02:55:00
10:15 PM,60.8,57.2,88,30.37,10.0,East,4.6,-,N/A,,Overcast,100,2013-01-11 03:15:00
10:35 PM,60.8,59.0,94,30.37,10.0,East,5.8,-,N/A,,Overcast,100,2013-01-11 03:35:00
10:55 PM,60.8,59.0,94,30.36,8.0,East,6.9,-,N/A,,Overcast,100,2013-01-11 03:55:00
11:15 PM,60.8,59.0,94,30.36,5.0,East,8.1,-,N/A,,Overcast,90,2013-01-11 04:15:00
11:35 PM,60.8,59.0,94,30.35,3.0,East,4.6,-,N/A,,Overcast,90,2013-01-11 04:35:00
11:55 PM,60.8,59.0,94,30.35,1.8,East,5.8,-,N/A,,Overcast,90,2013-01-11 04:55:00